Time,TemperatureF,DewpointF,PressureIn,WindDirection,WindDirectionDegrees,WindSpeedMPH,WindSpeedGustMPH,Humidity,HourlyPrecipIn,Conditions,Clouds,dailyrainin,SolarRadiationWatts/m^2,SoftwareType,DateUTC
2013-03-30 00:02:00,40.0,30.0,-100.00,South,175,3.0,7.0,68,0.00,,,0.00,0.000000,,2013-03-30 05:02:00,
2013-03-30 00:32:00,39.0,36.0,-100.00,South,171,5.0,9.0,90,0.04,,,0.04,0.000000,,2013-03-30 05:32:00,
2013-03-30 00:42:00,39.0,36.0,-100.00,South,171,5.0,9.0,90,0.04,,,0.04,0.000000,,2013-03-30 05:42:00,
2013-03-30 00:52:00,39.0,36.0,-100.00,South,171,5.0,9.0,90,0.04,,,0.04,0.000000,,2013-03-30 05:52:00,
2013-03-30 01:02:00,39.0,36.0,-100.00,South,171,5.0,9.0,90,0.04,,,0.04,0.000000,,2013-03-30 06:02:00,
2013-03-30 01:32:00,39.0,37.0,-100.00,South,171,4.0,9.0,94,0.03,,,0.07,0.000000,,2013-03-30 06:32:00,
2013-03-30 01:42:00,39.0,37.0,-100.00,South,171,4.0,9.0,94,0.03,,,0.07,0.000000,,2013-03-30 06:42:00,
2013-03-30 01:52:00,39.0,37.0,-100.00,South,171,4.0,9.0,94,0.03,,,0.07,0.000000,,2013-03-30 06:52:00,
2013-03-30 02:02:00,39.0,37.0,-100.00,South,171,4.0,9.0,94,0.03,,,0.07,0.000000,,2013-03-30 07:02:00,
2013-03-30 03:32:00,39.0,36.0,-100.00,SSE,148,5.0,10.0,88,-99.99,,,0.08,0.000000,,2013-03-30 08:32:00,
2013-03-30 03:42:00,39.0,36.0,-100.00,SSE,148,5.0,10.0,88,-99.99,,,0.08,0.000000,,2013-03-30 08:42:00,
2013-03-30 03:53:00,39.0,36.0,-100.00,SSE,148,5.0,10.0,88,-99.99,,,0.08,0.000000,,2013-03-30 08:53:00,
2013-03-30 04:02:00,39.0,36.0,-100.00,SSE,148,5.0,10.0,88,-99.99,,,0.08,0.000000,,2013-03-30 09:02:00,
2013-03-30 05:33:00,39.0,36.0,-100.00,SSE,157,4.0,12.0,89,-99.99,,,0.17,0.000000,,2013-03-30 10:33:00,
2013-03-30 05:42:00,39.0,36.0,-100.00,SSE,157,4.0,12.0,89,-99.99,,,0.17,0.000000,,2013-03-30 10:42:00,
2013-03-30 05:52:00,39.0,36.0,-100.00,SSE,157,4.0,12.0,89,-99.99,,,0.17,0.000000,,2013-03-30 10:52:00,
2013-03-30 06:03:00,39.0,36.0,-100.00,SSE,157,4.0,12.0,89,-99.99,,,0.17,0.000000,,2013-03-30 11:03:00,
2013-03-30 06:33:00,38.0,36.0,-100.00,SSE,168,4.0,9.0,91,0.05,,,0.22,0.000000,,2013-03-30 11:33:00,
2013-03-30 06:43:00,38.0,36.0,-100.00,SSE,168,4.0,9.0,91,0.05,,,0.22,0.000000,,2013-03-30 11:43:00,
2013-03-30 06:53:00,38.0,36.0,-100.00,SSE,168,4.0,9.0,91,0.05,,,0.22,0.000000,,2013-03-30 11:53:00,
2013-03-30 07:02:00,38.0,36.0,-100.00,SSE,168,4.0,9.0,91,0.05,,,0.22,0.000000,,2013-03-30 12:02:00,
2013-03-30 07:33:00,38.0,36.0,-100.00,SSW,203,5.0,12.0,94,0.06,,,0.28,0.000000,,2013-03-30 12:33:00,
2013-03-30 07:43:00,38.0,36.0,-100.00,SSW,203,5.0,12.0,94,0.06,,,0.28,0.000000,,2013-03-30 12:43:00,
2013-03-30 07:53:00,38.0,36.0,-100.00,SSW,203,5.0,12.0,94,0.06,,,0.28,0.000000,,2013-03-30 12:53:00,
2013-03-30 08:02:00,38.0,36.0,-100.00,SSW,203,5.0,12.0,94,0.06,,,0.28,0.000000,,2013-03-30 13:02:00,
2013-03-30 08:32:00,38.0,37.0,-100.00,South,190,4.0,10.0,96,0.19,,,0.47,2.000000,,2013-03-30 13:32:00,
2013-03-30 08:43:00,38.0,37.0,-100.00,South,190,4.0,10.0,96,0.19,,,0.47,2.000000,,2013-03-30 13:43:00,
2013-03-30 08:52:00,38.0,37.0,-100.00,South,190,4.0,10.0,96,0.19,,,0.47,2.000000,,2013-03-30 13:52:00,
2013-03-30 09:02:00,38.0,37.0,-100.00,South,190,4.0,10.0,96,0.19,,,0.47,2.000000,,2013-03-30 14:02:00,
2013-03-30 09:33:00,38.0,37.0,-100.00,SW,219,4.0,9.0,97,0.05,,,0.52,11.000000,,2013-03-30 14:33:00,
2013-03-30 09:43:00,38.0,37.0,-100.00,SW,219,4.0,9.0,97,0.05,,,0.52,11.000000,,2013-03-30 14:43:00,
2013-03-30 09:52:00,38.0,37.0,-100.00,SW,219,4.0,9.0,97,0.05,,,0.52,11.000000,,2013-03-30 14:52:00,
2013-03-30 10:02:00,38.0,37.0,-100.00,SW,219,4.0,9.0,97,0.05,,,0.52,11.000000,,2013-03-30 15:02:00,
2013-03-30 10:34:00,40.0,39.0,-100.00,WSW,238,3.0,6.0,97,0.00,,,0.52,49.000000,,2013-03-30 15:34:00,
2013-03-30 10:43:00,40.0,39.0,-100.00,WSW,238,3.0,6.0,97,0.00,,,0.52,49.000000,,2013-03-30 15:43:00,
2013-03-30 10:53:00,40.0,39.0,-100.00,WSW,238,3.0,6.0,97,0.00,,,0.52,49.000000,,2013-03-30 15:53:00,
2013-03-30 11:03:00,40.0,39.0,-100.00,WSW,238,3.0,6.0,97,0.00,,,0.52,49.000000,,2013-03-30 16:03:00,
2013-03-30 11:33:00,41.0,39.0,-100.00,West,263,4.0,7.0,94,0.00,,,0.52,107.000000,,2013-03-30 16:33:00,
2013-03-30 11:43:00,41.0,39.0,-100.00,West,263,4.0,7.0,94,0.00,,,0.52,107.000000,,2013-03-30 16:43:00,
2013-03-30 11:53:00,41.0,39.0,-100.00,West,263,4.0,7.0,94,0.00,,,0.52,107.000000,,2013-03-30 16:53:00,
2013-03-30 12:02:00,41.0,39.0,-100.00,West,263,4.0,7.0,94,0.00,,,0.52,107.000000,,2013-03-30 17:02:00,
2013-03-30 12:33:00,43.0,40.0,-100.00,West,271,4.0,7.0,90,0.00,,,0.52,163.000000,,2013-03-30 17:33:00,
2013-03-30 12:43:00,43.0,40.0,-100.00,West,271,4.0,7.0,90,0.00,,,0.52,163.000000,,2013-03-30 17:43:00,
2013-03-30 12:53:00,43.0,40.0,-100.00,West,271,4.0,7.0,90,0.00,,,0.52,163.000000,,2013-03-30 17:53:00,
2013-03-30 13:03:00,43.0,40.0,-100.00,West,271,4.0,7.0,90,0.00,,,0.52,163.000000,,2013-03-30 18:03:00,
2013-03-30 13:33:00,47.0,42.0,-100.00,WNW,295,5.0,9.0,82,0.00,,,0.52,295.000000,,2013-03-30 18:33:00,
2013-03-30 13:43:00,47.0,42.0,-100.00,WNW,295,5.0,9.0,82,0.00,,,0.52,295.000000,,2013-03-30 18:43:00,
2013-03-30 13:53:00,47.0,42.0,-100.00,WNW,295,5.0,9.0,82,0.00,,,0.52,295.000000,,2013-03-30 18:53:00,
2013-03-30 14:03:00,47.0,42.0,-100.00,WNW,295,5.0,9.0,82,0.00,,,0.52,295.000000,,2013-03-30 19:03:00,
2013-03-30 15:33:00,53.0,40.0,-100.00,West,276,5.0,10.0,62,-99.99,,,0.52,726.000000,,2013-03-30 20:33:00,
2013-03-30 15:43:00,53.0,40.0,-100.00,West,276,5.0,10.0,62,-99.99,,,0.52,726.000000,,2013-03-30 20:43:00,
2013-03-30 15:53:00,53.0,40.0,-100.00,West,276,5.0,10.0,62,-99.99,,,0.52,726.000000,,2013-03-30 20:53:00,
2013-03-30 16:02:00,53.0,40.0,-100.00,West,276,5.0,10.0,62,-99.99,,,0.52,726.000000,,2013-03-30 21:02:00,
2013-03-30 16:34:00,54.0,40.0,-100.00,WNW,294,6.0,11.0,59,0.00,,,0.52,613.000000,,2013-03-30 21:34:00,
2013-03-30 16:43:00,54.0,40.0,-100.00,WNW,294,6.0,11.0,59,0.00,,,0.52,613.000000,,2013-03-30 21:43:00,
2013-03-30 16:53:00,54.0,40.0,-100.00,WNW,294,6.0,11.0,59,0.00,,,0.52,613.000000,,2013-03-30 21:53:00,
2013-03-30 17:03:00,54.0,40.0,-100.00,WNW,294,6.0,11.0,59,0.00,,,0.52,613.000000,,2013-03-30 22:03:00,
2013-03-30 17:33:00,54.0,36.0,-100.00,West,279,7.0,13.0,51,0.00,,,0.52,496.000000,,2013-03-30 22:33:00,
2013-03-30 17:43:00,54.0,36.0,-100.00,West,279,7.0,13.0,51,0.00,,,0.52,496.000000,,2013-03-30 22:43:00,
2013-03-30 17:53:00,54.0,36.0,-100.00,West,279,7.0,13.0,51,0.00,,,0.52,496.000000,,2013-03-30 22:53:00,
2013-03-30 18:02:00,54.0,36.0,-100.00,West,279,7.0,13.0,51,0.00,,,0.52,496.000000,,2013-03-30 23:02:00,
2013-03-30 18:33:00,53.0,33.0,-100.00,WNW,286,5.0,13.0,46,0.00,,,0.52,305.000000,,2013-03-30 23:33:00,
2013-03-30 18:43:00,53.0,33.0,-100.00,WNW,286,5.0,13.0,46,0.00,,,0.52,305.000000,,2013-03-30 23:43:00,
2013-03-30 18:53:00,53.0,33.0,-100.00,WNW,286,5.0,13.0,46,0.00,,,0.52,305.000000,,2013-03-30 23:53:00,
2013-03-30 19:02:00,53.0,33.0,-100.00,WNW,286,5.0,13.0,46,0.00,,,0.52,305.000000,,2013-03-31 00:02:00,
2013-03-30 19:33:00,50.0,28.0,-100.00,WSW,256,4.0,10.0,42,0.00,,,0.52,133.000000,,2013-03-31 00:33:00,
2013-03-30 19:43:00,50.0,28.0,-100.00,WSW,256,4.0,10.0,42,0.00,,,0.52,133.000000,,2013-03-31 00:43:00,
2013-03-30 19:53:00,50.0,28.0,-100.00,WSW,256,4.0,10.0,42,0.00,,,0.52,133.000000,,2013-03-31 00:53:00,
2013-03-30 20:02:00,50.0,28.0,-100.00,WSW,256,4.0,10.0,42,0.00,,,0.52,133.000000,,2013-03-31 01:02:00,
2013-03-30 20:32:00,44.0,33.0,-100.00,WSW,238,6.0,12.0,65,0.00,,,0.52,9.000000,,2013-03-31 01:32:00,
2013-03-30 20:43:00,44.0,33.0,-100.00,WSW,238,6.0,12.0,65,0.00,,,0.52,9.000000,,2013-03-31 01:43:00,
2013-03-30 20:53:00,44.0,33.0,-100.00,WSW,238,6.0,12.0,65,0.00,,,0.52,9.000000,,2013-03-31 01:53:00,
2013-03-30 21:02:00,44.0,33.0,-100.00,WSW,238,6.0,12.0,65,0.00,,,0.52,9.000000,,2013-03-31 02:02:00,
2013-03-30 21:33:00,41.0,32.0,-100.00,WSW,237,5.0,10.0,70,0.00,,,0.52,0.000000,,2013-03-31 02:33:00,
2013-03-30 21:43:00,41.0,32.0,-100.00,WSW,237,5.0,10.0,70,0.00,,,0.52,0.000000,,2013-03-31 02:43:00,
2013-03-30 21:52:00,41.0,32.0,-100.00,WSW,237,5.0,10.0,70,0.00,,,0.52,0.000000,,2013-03-31 02:52:00,
2013-03-30 22:02:00,41.0,32.0,-100.00,WSW,237,5.0,10.0,70,0.00,,,0.52,0.000000,,2013-03-31 03:02:00,
2013-03-30 22:33:00,40.0,32.0,-100.00,WSW,242,5.0,8.0,74,0.00,,,0.52,0.000000,,2013-03-31 03:33:00,
2013-03-30 22:44:00,40.0,32.0,-100.00,WSW,242,5.0,8.0,74,0.00,,,0.52,0.000000,,2013-03-31 03:44:00,
2013-03-30 22:54:00,40.0,32.0,-100.00,WSW,242,5.0,8.0,74,0.00,,,0.52,0.000000,,2013-03-31 03:54:00,
2013-03-30 23:03:00,40.0,-99.9,-100.00,WSW,242,5.0,8.0,74,0.00,,,0.52,0.000000,,2013-03-31 04:03:00,
2013-03-30 23:33:00,38.0,31.0,-100.00,WSW,248,4.0,8.0,76,0.00,,,0.52,0.000000,,2013-03-31 04:33:00,
2013-03-30 23:42:00,38.0,31.0,-100.00,WSW,248,4.0,8.0,76,0.00,,,0.52,0.000000,,2013-03-31 04:42:00,
2013-03-30 23:53:00,38.0,31.0,-100.00,WSW,248,4.0,8.0,76,0.00,,,0.52,0.000000,,2013-03-31 04:53:00,